Satellite-Ground Cal/Val Site Overpasses Predictions

Prediction of Satellite NPP Overpassing Cal/Val Site: Antarctic Dome C

Ground Cal/Val Site Location: Latitude: -75.10, Longitude: 123.35; Satellite-Ground Site NADIR distance within 100 km.

Table of predicted overpasses for the next 14.0 days since TLE Epoch: 10/8/2022
Interval Starting Time Ending Time Minimum Distance Time Minimum Distance (km)
1 10/10/2022 14:55:59 10/10/2022 14:56:27 10/10/2022 14:56:13 25.07
2 10/11/2022 14:37:15 10/11/2022 14:37:32 10/11/2022 14:37:24 82.19
3 10/12/2022 07:38:49 10/12/2022 07:39:16 10/12/2022 07:39:03 37.27
4 10/13/2022 07:20:02 10/13/2022 07:20:22 10/13/2022 07:20:12 72.76
5 10/15/2022 15:02:17 10/15/2022 15:02:40 10/15/2022 15:02:29 61.96
6 10/16/2022 14:43:27 10/16/2022 14:43:52 10/16/2022 14:43:40 47.45
7 10/17/2022 07:45:07 10/17/2022 07:45:27 10/17/2022 07:45:17 72.21
8 10/18/2022 07:26:15 10/18/2022 07:26:42 10/18/2022 07:26:28 35.76
9 10/20/2022 15:08:44 10/20/2022 15:08:46 10/20/2022 15:08:45 99.50
